Regional Weather Roundup
Issued by NWS Grand Forks, ND

Home | Current Version | Previous Version | Graphics & Text | Print | Product List | Glossary On
Versions: 1 2 3 4 5 6 7 8 9 10 11 12 13 14 15 16 17 18 19 20 21 22 23 24 25 26 27 28 29 30 31 32 33 34 35 36 37 38 39 40 41 42 43 44 45 46 47 48 49 50
000
ASUS43 KFGF 301710
RWRFGF
PRAIRIE TO PINES  WEATHER ROUNDUP
NATIONAL WEATHER SERVICE EASTERN NORTH DAKOTA/GRAND FORKS ND
1200 PM CDT TUE SEP 30 2014

 **SATELLITE DATA USED TO AUGMENT SKY COVER AT AUTOMATED STATIONS**
 *****  WEATHER ACROSS EASTERN NORTH DAKOTA  *****

CITY           SKY/WX    TMP DP  RH WIND       PRES   REMARKS
GRAND FORKS    PTSUNNY   54  44  69 SE18G25   29.85F
GRAND FRKS AFB CLOUDY    52  46  82 SE15      29.86F
GRAND FRKS NWS   N/A     54 N/A N/A SE20        N/A
DEVILS LAKE    CLOUDY    48  39  71 SE22      29.77F
FARGO          MOSUNNY   55  43  63 SE15G25   29.86F
WAHPETON ARPT  PTSUNNY   50  41  71 SE20G25   29.87F
$$

 ***** WEATHER ACROSS CENTRAL AND WESTERN NORTH DAKOTA  *****

CITY           SKY/WX    TMP DP  RH WIND       PRES   REMARKS
BISMARCK       CLOUDY    52  50  93 E20       29.64F
MINOT          CLOUDY    49  47  93 E18       29.68F FOG
JAMESTOWN      CLOUDY    50  45  83 SE17G24   29.77S
MINOT AFB      CLOUDY    49  49 100 E20       29.68F
GARRISON         N/A     51  50  96 E16       29.65F
WILLISTON      LGT RAIN  55  52  89 E7        29.62F
DICKINSON      CLOUDY    52  50  93 E14       29.58F FOG
HETTINGER      FOG       52  51  97 E17       29.55F VSB 1/4
$$

 *****  OTHER AIRPORT OBSERVATIONS IN OUR AREA  *****

CITY           SKY/WX    TMP DP  RH WIND       PRES   REMARKS
WALHALLA       CLOUDY    46  46 100 SE16G23   29.85F
GRAFTON AIRPOR CLOUDY    50  46  87 SE16      29.87F
VALLEY CITY AR CLOUDY    48  48 100 E18G26    29.79F
CANDO          CLOUDY    46  45  93 SE16      29.79F
CAVALIER APRT  CLOUDY    48  45  87 SE9G16    29.86F
GWINNER        CLOUDY    52  46  82 SE23G30   29.80F
ROLLA          CLOUDY    46  46 100 SE15      29.79F
 ***** THE ABOVE OBSERVATIONS ARE NON NWS ARE NOT QUALITY
       CONTROLLED AND MAY MIS-REPORT RAIN FOR SNOW...
$$

  *****  WEATHER ACROSS NORTHERN MINNESOTA  *****

CITY           SKY/WX    TMP DP  RH WIND       PRES   REMARKS
FLAG ISLAND    CLOUDY    46  41  81 SE9       29.98F
WARROAD        PTSUNNY   48  43  81 SE10      29.97F
ROSEAU         PTSUNNY   52  43  71 SE17      29.95F
HALLOCK        SUNNY     55  46  71 SE14G21   29.88F
THF RVR FALLS  SUNNY     52  43  71 E18       29.90F
BAUDETTE       MOSUNNY   49  41  74 SE13G23   29.99F
WASKISH        SUNNY     52  45  76 E6G17     29.98F
CROOKSTON      SUNNY     55  45  67 SE16G23   29.88F
STEPHEN NDAWN    N/A     54  46  76 SE15        N/A
GREENBUSH NDAW   N/A     50  45  81 E16         N/A
$$
  *****  WEATHER ACROSS CENTRAL AND WEST MINNESOTA  *****

CITY           SKY/WX    TMP DP  RH WIND       PRES   REMARKS
FOSSTON        SUNNY     54  43  66 E13G20    29.91F
BEMIDJI        CLOUDY    45  40  83 SE12      29.97F
PARK RAPIDS    PTSUNNY   47  40  76 SE14G23   29.96F
ELBOW LAKE     PTSUNNY   48  43  81 E17G26    29.88F
WADENA         SUNNY     48  41  76 SE15G22   29.94F
DETROIT LAKES  SUNNY     52  43  71 SE17G23   29.89F
MOORHEAD       NOT AVBL
FERGUS FALLS   PTSUNNY   50  39  66 SE18G25   29.89F
MORRIS MN      PTSUNNY   52  43  71 SE23      29.88F
STAPLES        PTSUNNY   46  39  76 SE9G16    29.98F
$$
  *****  WEATHER ELSEWHERE ACROSS MINNESOTA  *****

CITY           SKY/WX    TMP DP  RH WIND       PRES   REMARKS
DULUTH         CLOUDY    45  39  79 E20       30.08F
INTRNTL FALLS  CLOUDY    47  41  80 SE12      30.05F
ELY            CLOUDY    46  39  76 S8        30.09F
CLOQUET        CLOUDY    45  39  81 E9G16     30.08F
WHEATON        CLOUDY    50  43  76 E21G26    29.87F
BRAINERD       CLOUDY    45  40  82 SE10G18   30.02F
HIBBING        CLOUDY    47  40  76 SE12      30.07F
ALEXANDRIA     PTSUNNY   48  42  80 E15       29.94F
SAINT CLOUD    MOSUNNY   51  41  68 E10       30.00F
MINNEAPOLIS    PTSUNNY   50  41  71 E10       30.03S
$$

  *****  WEATHER ACROSS SOUTH DAKOTA  *****

CITY           SKY/WX    TMP DP  RH WIND       PRES   REMARKS
SIOUX FALLS    LGT RAIN  58  56  93 SE18      29.79F
BROOKINGS      NOT AVBL
WATERTOWN      LGT RAIN  50  48  93 E14G23    29.77F FOG
HURON          CLOUDY    61  58  90 SE22G31   29.67F
SISSETON         N/A     48  45  89 S16G28    29.83F
ABERDEEN       LGT RAIN  56  53  90 E16G24    29.68F
MITCHELL       CLOUDY    64  60  87 SE16G28   29.70F
PIERRE         CLOUDY    67  48  50 S32G41    29.47F
MOBRIDGE       CLOUDY    58  54  86 E28G37    29.52F
RAPID CITY     LGT RAIN  54  51  90 W10       29.46R
$$

  *****  SOME WEATHER IN NEARBY STATES *****

CITY           SKY/WX    TMP DP  RH WIND       PRES   REMARKS
GLASGOW MT     CLOUDY    56  50  80 S5        29.61F
GREAT FALLS MT CLOUDY    58  45  62 SW16      29.70S
CHEYENNE WY    SUNNY     58  35  42 W20G36    29.87F
SCOTTSBLUFF NE CLOUDY    65  44  46 W28G37    29.74R
OMAHA NE       CLOUDY    73  60  63 S8        29.87F
DES MOINES IA  CLOUDY    61  55  81 SE12      29.95F
DAVENPORT IA   NOT AVBL
CHICAGO IL     PTSUNNY   55  46  71 NE10      30.05S
EAU CLAIRE WI  CLOUDY    48  39  71 SE12      30.08F
LA CROSSE WI   CLOUDY    50  42  74 E5        30.08F
$$

  *****  SOME NATIONAL WEATHER *****

CITY           SKY/WX    TMP DP  RH WIND       PRES   REMARKS
LA GUARDIA NY  NOT AVBL
RALEIGH NC     CLOUDY    66  61  84 CALM      29.93F
ATLANTA GA     MOSUNNY   78  62  57 E7        29.96F
NEW ORLEANS LA MOSUNNY   85  72  65 NE8       29.90F HX  91
OKLAHOMA CITY  MOSUNNY   84  61  45 S15G21    29.88F
ALBUQUERQUE NM SUNNY     61  34  36 W6        30.05F
SALT LAKE CITY MOSUNNY   63  48  59 SE7         N/A
LOS ANGELES CA MOSUNNY   74  57  55 E3        29.87S
BOISE ID       CLOUDY    55  44  66 NW18G25   29.99R
SEATTLE WA     PTSUNNY   57  51  80 S7        30.09R
$$

*** WEATHER ACROSS MANITOBA...SASKATCHEWAN AND ONTARIO ***
                ***ONTARIO***

CITY           SKY/WX    TMP DP  RH WIND       PRES   REMARKS
GERALDTON      NOT AVBL
THUNDER BAY    NOT AVBL
SIOUX LOOKOUT  NOT AVBL
TORONTO        NOT AVBL
BIG TROUT LK   NOT AVBL
PICKLE LAKE    NOT AVBL
DRYDEN         NOT AVBL
KENORA         NOT AVBL
$$
                *** MANITOBA***

CITY           SKY/WX    TMP DP  RH WIND       PRES   REMARKS
BRANDON        NOT AVBL
DAUPHIN        NOT AVBL
ISLAND LAKE    NOT AVBL
PILOT MOUND    NOT AVBL
THE PAS        NOT AVBL
THOMPSON       NOT AVBL
WINNIPEG       NOT AVBL
$$
                ***SASKATCHEWAN***

CITY           SKY/WX    TMP DP  RH WIND       PRES   REMARKS
ESTEVAN        NOT AVBL
KINDERSLEY     NOT AVBL
LLOYDMINSTER   NOT AVBL
PRINCE ALBERT  NOT AVBL
REGINA         NOT AVBL
YORKTON        NOT AVBL
N. BATTLEFORD  NOT AVBL
LA RONGE       NOT AVBL
SASKATOON      NOT AVBL
SWIFT CURRENT  NOT AVBL
$$
NOTE: THESE ARE AUTOMATED STATIONS WITH LIMITED QUALITY CONTROL
      "FAIR" INDICATES FEW OR NO CLOUDS BELOW 12,000 FEET WITH NO
      SIGNIFICANT WEATHER AND/OR OBSTRUCTIONS TO VISIBILITY.
      SKY/WX - SKY CONDITION AND SIGNIFICANT WEATHER.
      TMP - AIR TEMPERATURE.    DP   - DEWPOINT TEMPERATURE.
      RH  - RELATIVE HUMIDITY.  PRES - PRESSURE.
      HX  - HEAT INDEX.         WCI  - WIND CHILL INDEX.
$


USA.gov is the U.S. government's official web portal to all federal, state and local government web resources and services.